"2009-10-15 00:00:00",1327966,11.19,315.4,1.797,0.227,15.99,106.3556,15.54,16.55,30.65,0,110.5,13.28,16.35,277.4
"2009-10-15 00:00:30",1327967,10.96,314.5,2.408,0.302,16.13,106.3562,15.55,16.54,30.48,0,110.5,13.29,16.35,276.5
"2009-10-15 00:01:00",1327968,10.66,312.3,2.452,0.554,16.06,106.3558,15.54,16.55,30.4,0,110.5,13.29,16.35,274.3
"2009-10-15 00:01:30",1327969,10.55,307.1,2.59,0.365,15.98,106.354,15.54,16.54,30.39,0,110.5,13.29,16.35,269.1
"2009-10-15 00:02:00",1327970,9.39,301.4,2.751,0.487,15.74,106.349,15.53,16.55,30.97,0,110.5,13.29,16.33,263.4
"2009-10-15 00:02:30",1327971,11.41,305.6,2.742,0.814,16.04,106.3384,15.5,16.55,30.97,0,110.5,13.29,16.31,267.6
"2009-10-15 00:03:00",1327972,11.07,301.5,3.223,0.758,16.06,106.3356,15.49,16.53,30.65,0,110.5,13.29,16.30,263.5
"2009-10-15 00:03:30",1327973,10.25,298.5,2.275,0.318,15.91,106.3392,15.5,16.52,30.93,0,110.5,13.29,16.31,260.5
"2009-10-15 00:04:00",1327974,9.95,302.5,3.952,0.726,15.88,106.3422,15.51,16.52,31.17,0,110.5,13.3,16.32,264.5
"2009-10-15 00:04:30",1327975,10.64,308.4,3.219,0.855,15.87,106.3455,15.52,16.5,31.16,0,110.5,13.3,16.32,270.4
"2009-10-15 00:05:00",1327976,12.3,310.4,1.345,0.659,16.12,106.3349,15.49,16.5,30.84,0,110.5,13.3,16.30,272.4
"2009-10-15 00:05:30",1327977,12.49,310.3,1.957,0.48,16.07,106.3217,15.46,16.49,30.81,0,110.5,13.3,16.26,272.3
"2009-10-15 00:06:00",1327978,13.5,312.1,1.178,0.472,16.15,106.3206,15.45,16.47,30.6,0,110.5,13.3,16.26,274.1
"2009-10-15 00:06:30",1327979,13.64,312.6,2.894,0.482,16.1,106.3212,15.46,16.46,30.64,0,110.5,13.3,16.26,274.6
"2009-10-15 00:07:00",1327980,13.5,311,1.8,0.589,16.04,106.3215,15.46,16.44,30.7,0,110.5,13.3,16.26,273.0
"2009-10-15 00:07:30",1327981,13.69,311.6,1.359,0.375,16.05,106.3179,15.45,16.44,30.69,0,110.5,13.3,16.25,273.6
"2009-10-15 00:08:00",1327982,12.82,312.9,2.185,0.349,16.23,106.3024,15.41,16.41,30.48,0,110.5,13.3,16.21,274.9
"2009-10-15 00:08:30",1327983,12.63,318.1,2.309,0.327,16.32,106.2894,15.37,16.4,29.76,0,110.5,13.3,16.18,280.1
"2009-10-15 00:09:00",1327984,12.17,323.9,2.975,0.607,16.18,106.288,15.37,16.39,29.78,0,110.5,13.3,16.18,285.9
"2009-10-15 00:09:30",1327985,12,322.2,2.975,0.568,16.11,106.288,15.37,16.37,30.07,0,110.5,13.3,16.18,284.2
"2009-10-15 00:10:00",1327986,12.37,324.9,2.893,0.338,16.15,106.288,15.37,16.37,29.93,0,110.5,13.3,16.18,286.9
"2009-10-15 00:10:30",1327987,12.49,331.6,7.483,0.676,16.28,106.288,15.37,16.38,29.58,0,110.5,13.31,16.18,293.6
"2009-10-15 00:11:00",1327988,11.43,337.4,2.527,0.527,16.42,106.288,15.37,16.37,29.14,0,110.5,13.31,16.18,299.4
"2009-10-15 00:11:30",1327989,11.91,329.4,3.694,0.763,16.03,106.288,15.37,16.35,29.69,0,110.5,13.31,16.18,291.4
"2009-10-15 00:12:00",1327990,10.28,324.3,2.807,0.565,16.05,106.2877,15.37,16.35,30.24,0,110.5,13.31,16.18,286.3
"2009-10-15 00:12:30",1327991,11.31,331.9,3.034,0.292,16.14,106.2877,15.37,16.35,30.1,0,110.5,13.31,16.18,293.9
"2009-10-15 00:13:00",1327992,11.49,321.1,6.228,0.455,15.99,106.2863,15.37,16.34,30.26,0,110.5,13.31,16.17,283.1
"2009-10-15 00:13:30",1327993,11.02,324.6,1.847,0.654,16.08,106.2827,15.36,16.35,30.47,0,110.5,13.31,16.16,286.6
"2009-10-15 00:14:00",1327994,10.14,324.6,3.494,0.345,16.06,106.2799,15.35,16.35,30.53,0,110.5,13.31,16.16,286.6
"2009-10-15 00:14:30",1327995,10.7,327.6,2.239,0.208,16.2,106.279,15.35,16.34,30.44,0,110.5,13.31,16.15,289.6
"2009-10-15 00:15:00",1327996,10.16,330.2,2.441,0.741,16.21,106.2728,15.33,16.34,30.07,0,110.5,13.31,16.14,292.2
"2009-10-15 00:15:30",1327997,9.62,329.6,1.603,0.442,16.02,106.2579,15.29,16.33,30.21,0,110.5,13.3,16.10,291.6
"2009-10-15 00:16:00",1327998,9.11,328.3,1.674,0.28,16.07,106.2545,15.28,16.33,30.47,0,110.5,13.3,16.09,290.3
"2009-10-15 00:16:30",1327999,9.31,319.9,3.866,0.65,16.15,106.2542,15.28,16.34,30.37,0,110.5,13.3,16.09,281.9
"2009-10-15 00:17:00",1328000,9.01,325.1,4.867,0.67,16.3,106.2542,15.28,16.33,29.63,0,110.5,13.3,16.09,287.1
"2009-10-15 00:17:30",1328001,9.37,330.1,4.79,0.231,16.2,106.2542,15.28,16.32,29.95,0,110.5,13.3,16.09,292.1
"2009-10-15 00:18:00",1328002,9.97,333.2,3.186,0.655,16.18,106.2542,15.28,16.31,30.09,0,110.5,13.3,16.09,295.2
"2009-10-15 00:18:30",1328003,10.73,321.5,4.326,0.392,15.97,106.2542,15.28,16.32,30.55,0,110.5,13.31,16.09,283.5
"2009-10-15 00:19:00",1328004,9.82,321.6,2.385,0.319,16.11,106.2542,15.28,16.31,30.73,0,110.5,13.31,16.09,283.6
"2009-10-15 00:19:30",1328005,10.55,324.1,1.478,0.482,16.13,106.2542,15.28,16.31,30.52,0,110.5,13.31,16.09,286.1
"2009-10-15 00:20:00",1328006,10.22,324.5,1.612,0.337,16.02,106.2542,15.28,16.29,30.55,0,110.5,13.31,16.09,286.5
"2009-10-15 00:20:30",1328007,10.49,329.3,2.429,0.422,16.24,106.2526,15.28,16.3,30.39,0,110.5,13.32,16.09,291.3
"2009-10-15 00:21:00",1328008,9.39,321,3.86,0.363,16.08,106.2467,15.26,16.3,30.43,0,110.5,13.32,16.07,283.0
"2009-10-15 00:21:30",1328009,9.51,318.3,2.148,0.252,16.18,106.241,15.25,16.29,30.32,0,110.5,13.32,16.06,280.3
"2009-10-15 00:22:00",1328010,9.85,316.4,2.295,0.339,16.09,106.2298,15.22,16.29,30.64,0,110.5,13.32,16.03,278.4
"2009-10-15 00:22:30",1328011,10.5,317.6,1.194,0.172,16.11,106.2321,15.23,16.27,30.73,0,110.5,13.32,16.03,279.6
"2009-10-15 00:23:00",1328012,11.2,319.2,1.921,0.661,16.24,106.2339,15.23,16.28,30.6,0,110.5,13.32,16.04,281.2
"2009-10-15 00:23:30",1328013,12.45,321,2.626,0.821,16.49,106.236,15.24,16.26,29.46,0,110.5,13.32,16.04,283.0
"2009-10-15 00:24:00",1328014,11.03,317.7,5.593,1.018,16.36,106.2402,15.25,16.26,29.4,0,110.5,13.32,16.05,279.7
"2009-10-15 00:24:30",1328015,11.42,320.1,3.901,1.252,16.32,106.2414,15.25,16.25,29.43,0,110.5,13.32,16.06,282.1
"2009-10-15 00:25:00",1328016,13.29,327,2.999,0.435,16.27,106.2453,15.26,16.25,29.48,0,110.5,13.32,16.07,289.0
"2009-10-15 00:25:30",1328017,12.05,326.8,4.158,0.668,16.31,106.2462,15.26,16.25,29.49,0,110.5,13.32,16.07,288.8
"2009-10-15 00:26:00",1328018,11.81,319.9,3.95,0.536,16.26,106.2483,15.27,16.26,29.58,0,110.5,13.32,16.07,281.9
"2009-10-15 00:26:30",1328019,9.78,320.9,3.609,0.445,16.23,106.2547,15.29,16.26,29.62,0,110.5,13.32,16.09,282.9
"2009-10-15 00:27:00",1328020,9.65,323.6,4.083,0.521,16.22,106.2584,15.29,16.26,29.62,0,110.5,13.32,16.10,285.6
"2009-10-15 00:27:30",1328021,9.36,323.8,3.589,0.181,16,106.2635,15.31,16.26,30.07,0,110.5,13.32,16.11,285.8
"2009-10-15 00:28:00",1328022,9.05,321.3,1.887,0.161,15.84,106.2667,15.32,16.27,30.72,0,110.5,13.32,16.12,283.3
"2009-10-15 00:28:30",1328023,8.98,325.3,1.814,0.314,15.95,106.2693,15.32,16.27,30.77,0,110.5,13.32,16.13,287.3
"2009-10-15 00:29:00",1328024,9.26,324,3.098,0.334,16.14,106.2668,15.32,16.28,30.53,0,110.4,13.32,16.12,286.0
"2009-10-15 00:29:30",1328025,8.55,327.1,2.201,0.343,15.98,106.2637,15.31,16.28,30.79,0,110.5,13.33,16.11,289.1
"2009-10-15 00:30:00",1328026,9.38,330,2.231,0.648,16.08,106.2577,15.29,16.28,30.76,0,110.4,13.33,16.10,292.0
"2009-10-15 00:30:30",1328027,9.03,325.2,3.025,0.297,16.01,106.2566,15.29,16.29,30.62,0,110.4,13.33,16.10,287.2
"2009-10-15 00:31:00",1328028,10.5,329.3,2.745,0.832,16.28,106.2563,15.29,16.28,30.6,0,110.4,13.33,16.09,291.3
"2009-10-15 00:31:30",1328029,11.82,327.7,3.217,0.431,16.23,106.2563,15.29,16.28,30.17,0,110.4,13.32,16.09,289.7
"2009-10-15 00:32:00",1328030,12.68,326.9,3.892,0.545,16.23,106.2563,15.29,16.29,30.2,0,110.4,13.32,16.09,288.9
"2009-10-15 00:32:30",1328031,10.27,318.5,2.889,0.804,16.18,106.2563,15.29,16.27,30.25,0,110.4,13.32,16.09,280.5
"2009-10-15 00:33:00",1328032,9.9,323.1,5.901,0.61,16.07,106.2563,15.29,16.27,30.4,0,110.4,13.32,16.09,285.1
"2009-10-15 00:33:30",1328033,11.53,325.5,3.842,0.479,16.24,106.2563,15.29,16.26,30.25,0,110.4,13.32,16.09,287.5
"2009-10-15 00:34:00",1328034,11.54,328.9,4.151,0.622,16.14,106.2561,15.29,16.27,30.32,0,110.4,13.32,16.09,290.9
"2009-10-15 00:34:30",1328035,10.39,329.4,4.974,0.633,16.13,106.2546,15.29,16.27,30.38,0,110.4,13.32,16.09,291.4
"2009-10-15 00:35:00",1328036,9.43,328,3.729,0.58,16.02,106.2484,15.27,16.25,30.52,0,110.4,13.32,16.07,290.0
"2009-10-15 00:35:30",1328037,8.73,325.2,3,0.214,15.96,106.2369,15.24,16.25,30.68,0,110.4,13.32,16.04,287.2
"2009-10-15 00:36:00",1328038,9.48,325.2,2.525,0.8,16.07,106.2304,15.22,16.25,30.77,0,110.4,13.32,16.03,287.2
"2009-10-15 00:36:30",1328039,11.79,327.6,1.79,0.697,16.19,106.2287,15.22,16.24,30.53,0,110.4,13.32,16.02,289.6
"2009-10-15 00:37:00",1328040,10.99,325,5.521,0.413,16.03,106.2234,15.2,16.24,30.64,0,110.4,13.33,16.01,287.0
"2009-10-15 00:37:30",1328041,10.84,325.2,2.244,0.536,15.99,106.2225,15.2,16.23,30.78,0,110.4,13.33,16.01,287.2
"2009-10-15 00:38:00",1328042,10.66,323.1,2.441,0.387,16.04,106.2225,15.2,16.23,30.86,0,110.4,13.33,16.01,285.1
"2009-10-15 00:38:30",1328043,10.79,321.6,2.918,0.403,16.02,106.2225,15.2,16.22,30.77,0,110.4,13.33,16.01,283.6
"2009-10-15 00:39:00",1328044,10.04,318.1,1.973,0.237,15.99,106.2225,15.2,16.21,30.97,0,110.4,13.33,16.01,280.1
"2009-10-15 00:39:30",1328045,10.23,320.5,1.455,0.184,16.06,106.2225,15.2,16.22,30.89,0,110.4,13.33,16.01,282.5
"2009-10-15 00:40:00",1328046,10.32,320.7,1.153,0.167,16.15,106.2225,15.2,16.2,30.82,0,110.4,13.33,16.01,282.7
"2009-10-15 00:40:30",1328047,10.65,321.2,1.795,0.419,16.29,106.222,15.2,16.19,30.66,0,110.4,13.33,16.01,283.2
"2009-10-15 00:41:00",1328048,10.96,324.8,1.907,0.255,16.26,106.2146,15.18,16.19,30.57,0,110.4,13.33,15.99,286.8
"2009-10-15 00:41:30",1328049,11.09,328,1.976,0.228,16.14,106.2036,15.15,16.18,30.65,0,110.4,13.33,15.96,290.0
"2009-10-15 00:42:00",1328050,11.18,328,1.982,0.471,16.22,106.1932,15.13,16.17,30.78,0,110.4,13.33,15.93,290.0
"2009-10-15 00:42:30",1328051,10.68,322,4.144,0.37,16.22,106.1887,15.12,16.18,30.77,0,110.4,13.33,15.92,284.0
"2009-10-15 00:43:00",1328052,9.62,318.6,2.342,0.539,16.2,106.1887,15.12,16.18,30.79,0,110.4,13.33,15.92,280.6
"2009-10-15 00:43:30",1328053,10.76,319.4,2.382,0.388,16.14,106.1887,15.12,16.16,30.84,0,110.4,13.33,15.92,281.4
"2009-10-15 00:44:00",1328054,10.82,318.8,2.358,0.125,16.11,106.1887,15.12,16.15,30.91,0,110.4,13.33,15.92,280.8
"2009-10-15 00:44:30",1328055,10.32,314.6,1.938,0.321,16.28,106.1899,15.12,16.16,30.84,0,110.4,13.33,15.92,276.6
"2009-10-15 00:45:00",1328056,10.56,322.3,3.725,0.497,16.24,106.1899,15.12,16.13,30.56,0,110.4,13.33,15.92,284.3
"2009-10-15 00:45:30",1328057,10.09,323.4,1.766,0.217,16.23,106.1902,15.12,16.14,30.74,0,110.4,13.33,15.92,285.4
"2009-10-15 00:46:00",1328058,9.92,323.7,4.187,0.329,16.03,106.1914,15.12,16.16,30.88,0,110.4,13.33,15.93,285.7
"2009-10-15 00:46:30",1328059,10.27,325.4,3.517,0.323,16.07,106.1923,15.13,16.13,31.05,0,110.4,13.33,15.93,287.4
"2009-10-15 00:47:00",1328060,9.77,326.5,2.453,0.552,16.26,106.1932,15.13,16.15,30.83,0,110.4,13.33,15.93,288.5
"2009-10-15 00:47:30",1328061,9.93,321.6,2.191,0.313,16.15,106.1953,15.13,16.12,30.89,0,110.4,13.33,15.94,283.6
"2009-10-15 00:48:00",1328062,10.22,321.9,1.953,0.557,16.31,106.1962,15.14,16.14,30.83,0,110.4,13.33,15.94,283.9
"2009-10-15 00:48:30",1328063,9.62,318.9,2.498,0.389,16.2,106.1995,15.14,16.15,30.61,0,110.4,13.33,15.95,280.9
"2009-10-15 00:49:00",1328064,9.99,314.6,1.145,0.207,16,106.2013,15.15,16.13,30.92,0,110.4,13.33,15.95,276.6
"2009-10-15 00:49:30",1328065,8.86,312.5,2.533,0.679,16.11,106.2028,15.15,16.14,31.04,0,110.4,13.33,15.96,274.5
"2009-10-15 00:50:00",1328066,9.28,314.9,2.931,0.415,16.14,106.2046,15.16,16.16,30.98,0,110.4,13.33,15.96,276.9
"2009-10-15 00:50:30",1328067,8.93,312.7,2.133,0.326,16,106.2079,15.17,16.13,31.13,0,110.4,13.33,15.97,274.7
"2009-10-15 00:51:00",1328068,9.01,314.1,2.595,0.407,16.02,106.21,15.17,16.12,31.26,0,110.4,13.33,15.98,276.1
"2009-10-15 00:51:30",1328069,8.61,313.9,2.237,0.505,15.91,106.2124,15.18,16.14,31.47,0,110.4,13.33,15.98,275.9
"2009-10-15 00:52:00",1328070,8.52,313.5,2.642,0.52,15.88,106.209,15.17,16.13,31.56,0,110.4,13.33,15.97,275.5
"2009-10-15 00:52:30",1328071,8.51,312.5,1.725,0.336,15.87,106.2059,15.16,16.14,31.65,0,110.4,13.33,15.97,274.5
"2009-10-15 00:53:00",1328072,7.769,313.9,1.742,0.452,15.86,106.204,15.16,16.13,31.73,0,110.4,13.33,15.96,275.9
"2009-10-15 00:53:30",1328073,8.28,314.2,1.428,0.178,15.88,106.2024,15.15,16.13,31.78,0,110.4,13.33,15.96,276.2
"2009-10-15 00:54:00",1328074,7.931,311.4,1.297,0.36,15.9,106.2014,15.15,16.12,31.74,0,110.4,13.34,15.95,273.4
"2009-10-15 00:54:30",1328075,5.84,316,5.705,0.832,15.22,106.1877,15.11,16.11,32.1,0,110.4,13.34,15.92,278.0
"2009-10-15 00:55:00",1328076,5.435,316.5,5.929,1.45,15.64,106.1854,15.11,16.1,32.28,0,110.4,13.34,15.91,278.5
"2009-10-15 00:55:30",1328077,7.733,311.4,1.316,0.626,16.04,106.1832,15.1,16.08,31.88,0,110.4,13.34,15.91,273.4
"2009-10-15 00:56:00",1328078,7.969,311,0.826,0.453,15.97,106.1746,15.08,16.08,31.9,0,110.4,13.34,15.88,273.0
"2009-10-15 00:56:30",1328079,7.107,319.2,6.579,0.307,15.39,106.1586,15.04,16.05,32.01,0,110.4,13.34,15.84,281.2
"2009-10-15 00:57:00",1328080,6.748,330.9,6.104,1.294,16.34,106.1567,15.03,16.19,32.54,0,110.4,13.31,15.84,292.9
"2009-10-15 00:57:30",1328081,8.23,322.2,6.164,1.003,17.29,106.157,15.03,16.13,32.21,0,110.4,13.31,15.84,284.2
"2009-10-15 00:58:00",1328082,10.51,318.6,5.833,0.946,16.86,106.1539,15.03,16.09,32,0,110.4,13.31,15.83,280.6
"2009-10-15 00:58:30",1328083,11.54,317.4,3.65,0.652,15.7,106.1426,15,16.02,31.68,0,110.4,13.34,15.80,279.4
"2009-10-15 00:59:00",1328084,9.43,318.5,6.189,0.728,15.56,106.131,14.97,15.99,31.56,0,110.4,13.34,15.77,280.5
"2009-10-15 00:59:30",1328085,6.36,314.2,4.908,0.842,15.56,106.1243,14.95,15.99,31.64,0,110.4,13.34,15.76,276.2
"2009-10-15 01:00:00",1328086,8.66,322.1,3.632,0.918,15.56,106.1231,14.95,15.97,31.76,0,110.4,13.34,15.75,284.1
"2009-10-15 01:00:30",1328087,9.73,328,3.087,0.628,15.84,106.1231,14.95,15.95,31.67,0,110.4,13.34,15.75,290.0
"2009-10-15 01:01:00",1328088,11.59,331.1,8.29,1.404,16.07,106.1231,14.95,15.96,31.47,0,110.4,13.34,15.75,293.1
"2009-10-15 01:01:30",1328089,10.46,345.3,4.572,1.295,16.19,106.1231,14.95,15.95,31.55,0,110.4,13.34,15.75,307.3
"2009-10-15 01:02:00",1328090,9.6,339.3,4.85,0.598,16.11,106.1231,14.95,15.94,31.58,0,110.4,13.34,15.75,301.3
"2009-10-15 01:02:30",1328091,7.588,338.5,4.676,0.595,15.94,106.1231,14.95,15.94,31.72,0,110.4,13.34,15.75,300.5
"2009-10-15 01:03:00",1328092,8.3,331.2,2.491,0.279,15.99,106.1231,14.95,15.93,31.82,0,110.4,13.34,15.75,293.2
"2009-10-15 01:03:30",1328093,9.51,331.2,2.055,0.458,15.98,106.1231,14.95,15.95,31.77,0,110.4,13.34,15.75,293.2
"2009-10-15 01:04:00",1328094,9.71,329,1.157,0.299,15.83,106.1231,14.95,15.94,31.97,0,110.4,13.34,15.75,291.0
"2009-10-15 01:04:30",1328095,10.17,332.3,3.948,0.42,15.84,106.1231,14.95,15.94,32.06,0,110.4,13.34,15.75,294.3
"2009-10-15 01:05:00",1328096,9.9,327.9,1.963,0.179,15.91,106.1231,14.95,15.95,32.14,0,110.4,13.34,15.75,289.9
"2009-10-15 01:05:30",1328097,9.84,326.4,1.869,0.495,15.92,106.1231,14.95,15.94,32.16,0,110.4,13.34,15.75,288.4
"2009-10-15 01:06:00",1328098,11.61,329,4.332,0.45,16.11,106.1231,14.95,15.92,32.17,0,110.4,13.34,15.75,291.0
"2009-10-15 01:06:30",1328099,10.97,326.7,2.749,0.443,16.22,106.1231,14.95,15.93,31.93,0,110.4,13.34,15.75,288.7
"2009-10-15 01:07:00",1328100,10.26,326.9,2.11,0.409,16.01,106.1231,14.95,15.94,32.05,0,110.4,13.34,15.75,288.9
"2009-10-15 01:07:30",1328101,9.56,330.6,1.358,0.23,15.94,106.1231,14.95,15.92,32.26,0,110.4,13.34,15.75,292.6
"2009-10-15 01:08:00",1328102,10.46,328.6,1.18,0.655,16,106.1231,14.95,15.94,32.37,0,110.4,13.34,15.75,290.6
"2009-10-15 01:08:30",1328103,10.32,328.7,2.055,0.445,16.37,106.1231,14.95,15.93,31.88,0,110.4,13.34,15.75,290.7
"2009-10-15 01:09:00",1328104,9.31,332.1,1.448,0.246,16.32,106.1231,14.95,15.93,31.74,0,110.4,13.34,15.75,294.1
"2009-10-15 01:09:30",1328105,9.09,331.1,1.811,0.28,16.17,106.1231,14.95,15.94,31.78,0,110.4,13.34,15.75,293.1
"2009-10-15 01:10:00",1328106,8.77,328.5,1.097,0.314,16.06,106.1231,14.95,15.93,31.92,0,110.4,13.34,15.75,290.5
"2009-10-15 01:10:30",1328107,8.67,329.3,1.556,0.28,16.17,106.1231,14.95,15.94,31.97,0,110.4,13.35,15.75,291.3
"2009-10-15 01:11:00",1328108,9.02,329.8,1.248,0.52,16.04,106.1231,14.95,15.93,31.97,0,110.4,13.35,15.75,291.8
"2009-10-15 01:11:30",1328109,9.39,331.7,1.345,0.401,15.89,106.1231,14.95,15.95,32.39,0,110.4,13.35,15.75,293.7
"2009-10-15 01:12:00",1328110,8.36,331.7,2.198,0.382,16.13,106.1231,14.95,15.95,32.29,0,110.4,13.35,15.75,293.7
"2009-10-15 01:12:30",1328111,8.65,334.4,1.123,0.205,16.23,106.1231,14.95,15.94,31.97,0,110.4,13.35,15.75,296.4
"2009-10-15 01:13:00",1328112,8.23,333.7,1.925,0.264,16.22,106.1231,14.95,15.95,31.95,0,110.4,13.35,15.75,295.7
"2009-10-15 01:13:30",1328113,8.61,332.1,0.643,0.212,16.09,106.1231,14.95,15.95,32.1,0,110.4,13.35,15.75,294.1
"2009-10-15 01:14:00",1328114,8.4,334.4,1.683,0.187,16.16,106.1231,14.95,15.95,32.13,0,110.4,13.35,15.75,296.4
"2009-10-15 01:14:30",1328115,8.85,334.7,1.576,0.405,15.93,106.1231,14.95,15.95,32.28,0,110.4,13.35,15.75,296.7
"2009-10-15 01:15:00",1328116,9.08,334.6,2.547,0.499,16.12,106.1231,14.95,15.94,32.37,0,110.4,13.35,15.75,296.6
"2009-10-15 01:15:30",1328117,9.85,340.8,1.645,0.363,16.21,106.1231,14.95,15.96,32.34,0,110.4,13.35,15.75,302.8
"2009-10-15 01:16:00",1328118,11.01,342.6,1.682,0.219,16.24,106.1231,14.95,15.95,32.39,0,110.4,13.35,15.75,304.6
"2009-10-15 01:16:30",1328119,10.32,341.1,2.611,0.312,16.19,106.1231,14.95,15.95,32.42,0,110.4,13.35,15.75,303.1
"2009-10-15 01:17:00",1328120,10.3,343.1,1.299,0.268,16.22,106.1231,14.95,15.96,32.4,0,110.4,13.35,15.75,305.1
"2009-10-15 01:17:30",1328121,10.55,342.2,1.19,0.148,16.22,106.1231,14.95,15.96,32.37,0,110.4,13.35,15.75,304.2
"2009-10-15 01:18:00",1328122,10.4,342.8,2.58,0.289,16.18,106.1231,14.95,15.96,32.44,0,110.4,13.35,15.75,304.8
"2009-10-15 01:18:30",1328123,9.79,337.6,0.88,0.415,16.05,106.1231,14.95,15.94,32.48,0,110.4,13.35,15.75,299.6
"2009-10-15 01:19:00",1328124,8.96,340.1,1.665,0.258,16.03,106.1231,14.95,15.94,32.53,0,110.4,13.35,15.75,302.1
"2009-10-15 01:19:30",1328125,8.93,340.7,1.189,0.286,16.03,106.1231,14.95,15.95,32.56,0,110.4,13.35,15.75,302.7
"2009-10-15 01:20:00",1328126,9.48,339.7,4.086,0.346,16.06,106.1231,14.95,15.95,32.52,0,110.4,13.35,15.75,301.7
"2009-10-15 01:20:30",1328127,10.88,341.1,2.231,0.501,16.25,106.1231,14.95,15.93,32.4,0,110.4,13.35,15.75,303.1
"2009-10-15 01:21:00",1328128,10.94,341.3,2.162,0.502,16.31,106.1231,14.95,15.94,32.05,0,110.4,13.35,15.75,303.3
"2009-10-15 01:21:30",1328129,10.19,342,2.198,0.244,16.29,106.1231,14.95,15.93,31.97,0,110.4,13.35,15.75,304.0
"2009-10-15 01:22:00",1328130,10.22,339.7,0.936,0.146,16.12,106.1228,14.95,15.94,32.14,0,110.4,13.35,15.75,301.7
"2009-10-15 01:22:30",1328131,10.13,339.9,1.445,0.342,16.03,106.122,14.95,15.93,32.39,0,110.3,13.35,15.75,301.9
"2009-10-15 01:23:00",1328132,9.45,339.9,1.928,0.199,16.01,106.1226,14.95,15.93,32.48,0,110.4,13.35,15.75,301.9
"2009-10-15 01:23:30",1328133,9.8,340.3,0.946,0.133,16.03,106.1212,14.94,15.93,32.58,0,110.4,13.35,15.75,302.3
"2009-10-15 01:24:00",1328134,9.49,339.7,1.186,0.213,15.99,106.1186,14.94,15.93,32.65,0,110.4,13.35,15.74,301.7
"2009-10-15 01:24:30",1328135,9.7,337.9,2.508,0.337,15.88,106.1167,14.93,15.93,32.7,0,110.4,13.35,15.74,299.9
"2009-10-15 01:25:00",1328136,10.48,336.3,1.478,0.359,15.95,106.1158,14.93,15.92,32.68,0,110.4,13.35,15.73,298.3
"2009-10-15 01:25:30",1328137,10.11,336.2,1.627,0.153,15.98,106.1127,14.92,15.92,32.33,0,110.4,13.35,15.73,298.2
"2009-10-15 01:26:00",1328138,9.57,337.9,2.108,0.312,16.05,106.1045,14.9,15.92,32.38,0,110.3,13.35,15.70,299.9
"2009-10-15 01:26:30",1328139,9.68,336.6,1.81,0.16,15.94,106.0975,14.88,15.91,32.13,0,110.4,13.35,15.69,298.6
"2009-10-15 01:27:00",1328140,9.17,341.1,3.37,0.382,15.82,106.091,14.87,15.91,32.35,0,110.4,13.35,15.67,303.1
"2009-10-15 01:27:30",1328141,8.59,347.1,2.15,0.564,15.82,106.0893,14.86,15.92,32.49,0,110.3,13.35,15.67,309.1
"2009-10-15 01:28:00",1328142,9.69,348.9,2.431,0.688,16.04,106.0893,14.86,15.91,32.67,0,110.3,13.35,15.67,310.9
"2009-10-15 01:28:30",1328143,10.08,347.9,2.12,0.286,16.26,106.0893,14.86,15.89,32.46,0,110.3,13.35,15.67,309.9
"2009-10-15 01:29:00",1328144,9.96,345.3,2.811,0.55,16.31,106.0893,14.86,15.89,31.93,0,110.3,13.35,15.67,307.3
"2009-10-15 01:29:30",1328145,9.7,342.2,3.64,0.459,16.23,106.0893,14.86,15.88,31.79,0,110.4,13.35,15.67,304.2
"2009-10-15 01:30:00",1328146,10.48,343.6,2.32,0.651,16.2,106.0887,14.86,15.88,31.83,0,110.4,13.35,15.66,305.6
"2009-10-15 01:30:30",1328147,11.71,342.2,2.468,0.522,16.06,106.0859,14.85,15.88,32.02,0,110.3,13.36,15.66,304.2
"2009-10-15 01:31:00",1328148,11.73,338.4,3.198,0.476,16.07,106.0814,14.84,15.86,32.13,0,110.4,13.36,15.65,300.4
"2009-10-15 01:31:30",1328149,10.8,337.5,5.57,0.696,16.05,106.0806,14.84,15.86,32.18,0,110.4,13.36,15.64,299.5
"2009-10-15 01:32:00",1328150,11.38,342.2,2.882,0.679,16.03,106.0795,14.84,15.85,32.22,0,110.3,13.36,15.64,304.2
"2009-10-15 01:32:30",1328151,11.21,339,1.37,0.417,15.99,106.0744,14.82,15.84,32.33,0,110.3,13.36,15.63,301.0
"2009-10-15 01:33:00",1328152,11.16,337,1.375,0.478,16.1,106.0645,14.8,15.84,32.26,0,110.4,13.36,15.60,299.0
"2009-10-15 01:33:30",1328153,10.63,337.1,1.747,0.375,15.96,106.058,14.78,15.83,32.06,0,110.4,13.36,15.59,299.1
"2009-10-15 01:34:00",1328154,11.45,336.3,1.273,0.197,15.93,106.0563,14.78,15.84,32.16,0,110.4,13.36,15.58,298.3
"2009-10-15 01:34:30",1328155,10.48,338.9,3.288,0.584,16,106.0558,14.78,15.83,32.14,0,110.3,13.36,15.58,300.9
"2009-10-15 01:35:00",1328156,9.49,342.3,2.304,0.481,15.96,106.0561,14.78,15.82,32.38,0,110.3,13.36,15.58,304.3
"2009-10-15 01:35:30",1328157,9.37,341.4,2.07,0.476,15.91,106.0555,14.77,15.82,32.57,0,110.4,13.36,15.58,303.4
"2009-10-15 01:36:00",1328158,8.91,342.9,1.532,0.458,15.97,106.0561,14.78,15.82,32.67,0,110.3,13.36,15.58,304.9
"2009-10-15 01:36:30",1328159,8.92,343.5,1.916,0.672,15.96,106.0555,14.77,15.82,32.74,0,110.4,13.36,15.58,305.5
"2009-10-15 01:37:00",1328160,10.04,344,2.612,0.312,15.92,106.0567,14.78,15.81,32.83,0,110.3,13.36,15.58,306.0
"2009-10-15 01:37:30",1328161,10.53,343.5,3.416,0.565,16.09,106.057,14.78,15.81,32.87,0,110.3,13.36,15.58,305.5
"2009-10-15 01:38:00",1328162,10.02,342,3.665,0.401,15.96,106.0585,14.78,15.8,32.81,0,110.4,13.36,15.59,304.0
"2009-10-15 01:38:30",1328163,10.06,345.5,2.298,0.469,16,106.0573,14.78,15.8,32.81,0,110.4,13.35,15.58,307.5
"2009-10-15 01:39:00",1328164,9.28,347.6,2.287,0.386,16.06,106.0576,14.78,15.78,32.91,0,110.4,13.35,15.58,309.6
"2009-10-15 01:39:30",1328165,9.37,344.9,2.439,0.268,16.06,106.0531,14.77,15.78,32.89,0,110.4,13.35,15.57,306.9
"2009-10-15 01:40:00",1328166,9.56,344,2.117,0.323,16.04,106.0491,14.76,15.78,32.83,0,110.4,13.35,15.56,306.0
"2009-10-15 01:40:30",1328167,9.83,344.6,1.723,0.229,16.09,106.047,14.75,15.77,32.87,0,110.4,13.35,15.56,306.6
"2009-10-15 01:41:00",1328168,10.17,342.9,1.537,0.362,16.02,106.0371,14.73,15.77,32.84,0,110.4,13.35,15.53,304.9
"2009-10-15 01:41:30",1328169,9.92,344,0.963,0.362,16.02,106.0311,14.71,15.76,32.71,0,110.4,13.35,15.52,306.0
"2009-10-15 01:42:00",1328170,9.86,343.3,1.574,0.437,16.04,106.0264,14.7,15.75,32.62,0,110.4,13.35,15.50,305.3
"2009-10-15 01:42:30",1328171,9.25,343.8,1.938,0.463,16.26,106.0276,14.7,15.74,32.45,0,110.4,13.35,15.51,305.8
"2009-10-15 01:43:00",1328172,9.03,343,2.347,0.308,16.17,106.0288,14.71,15.75,32.22,0,110.4,13.35,15.51,305.0
"2009-10-15 01:43:30",1328173,8.14,340.4,2.097,0.465,16.09,106.0303,14.71,15.75,32.28,0,110.4,13.36,15.51,302.4
"2009-10-15 01:44:00",1328174,8.07,342.7,3.841,0.326,16.06,106.0285,14.71,15.74,32.33,0,110.4,13.36,15.51,304.7
"2009-10-15 01:44:30",1328175,8.47,341.2,1.436,0.275,16.1,106.0297,14.71,15.73,32.35,0,110.4,13.36,15.51,303.2
"2009-10-15 01:45:00",1328176,8.15,339.9,1.242,0.288,16,106.0294,14.71,15.73,32.46,0,110.4,13.36,15.51,301.9
"2009-10-15 01:45:30",1328177,8.18,343,2.773,0.289,16.07,106.0294,14.71,15.73,32.51,0,110.4,13.36,15.51,305.0
"2009-10-15 01:46:00",1328178,8.21,345.8,1.229,0.183,16.19,106.0321,14.72,15.72,32.58,0,110.4,13.36,15.52,307.8
"2009-10-15 01:46:30",1328179,8.18,342.8,1.902,0.239,16.1,106.0324,14.72,15.71,32.77,0,110.4,13.36,15.52,304.8
"2009-10-15 01:47:00",1328180,8.63,342.7,1.056,0.509,15.98,106.0315,14.71,15.72,32.88,0,110.4,13.36,15.52,304.7